Date,TemperatureHighF,TemperatureAvgF,TemperatureLowF,DewpointHighF,DewpointAvgF,DewpointLowF,HumidityHigh,HumidityAvg,HumidityLow,PressureMaxIn,PressureMinIn,WindSpeedMaxMPH,WindSpeedAvgMPH,GustSpeedMaxMPH,PrecipitationSumIn
2013-1-1,31,23,10,28,16,3,94,76,56,29.73,29.50,12,2,20,0.00
2013-1-2,16,9,2,5,0,-6,79,68,55,29.92,29.72,11,2,17,0.00
2013-1-3,18,9,0,7,1,-6,82,70,55,29.99,29.86,4,0,11,0.00
2013-1-4,34,22,6,27,18,4,94,84,75,29.86,29.62,8,2,14,0.00
2013-1-5,33,26,10,28,16,5,87,67,46,30.21,29.61,12,2,20,0.01
2013-1-6,27,20,10,25,18,6,96,91,69,30.17,29.84,10,3,13,0.00
2013-1-7,23,16,9,22,12,5,93,82,60,30.35,29.89,21,7,26,0.00
2013-1-8,40,32,18,32,26,15,96,79,63,30.29,30.09,16,2,16,0.03
2013-1-9,40,33,21,38,30,20,96,89,80,30.34,29.75,6,1,12,0.03
2013-1-10,42,37,26,32,26,20,84,67,53,30.43,29.75,15,4,26,0.00
2013-1-11,35,30,25,28,21,17,85,71,54,30.45,30.21,9,2,14,0.00
2013-1-12,41,36,32,37,32,26,96,86,74,30.22,30.03,4,0,5,0.00
2013-1-13,45,40,37,45,40,36,100,99,96,30.07,29.88,3,0,9,0.02
2013-1-14,52,44,36,50,40,25,100,89,57,30.12,29.78,6,1,15,0.01
2013-1-15,37,32,27,27,24,20,90,72,57,30.24,30.11,7,1,12,0.00
2013-1-16,36,32,29,35,28,18,98,87,62,30.21,29.68,9,3,11,0.16
2013-1-17,40,30,12,37,22,-9,98,73,34,30.07,29.65,13,3,20,0.02
2013-1-18,16,11,5,3,-3,-11,69,53,38,30.32,30.05,16,4,21,0.00
2013-1-19,34,28,15,31,24,4,96,86,55,30.30,29.84,6,1,12,0.03
2013-1-20,47,37,24,41,29,7,99,76,47,29.83,29.35,11,3,20,0.10
2013-1-21,22,18,13,15,2,-4,87,51,33,29.96,29.73,10,3,20,0.00
2013-1-22,18,12,6,15,3,-8,88,66,47,29.89,29.71,19,8,25,0.00
2013-1-23,8,3,-3,-9,-12,-15,58,50,37,29.96,29.89,17,3,17,0.00
2013-1-24,11,3,-4,-7,-11,-14,62,53,38,29.97,29.78,12,2,18,0.00
2013-1-25,20,11,2,2,-2,-8,68,57,40,30.08,29.96,8,2,15,0.00
2013-1-26,18,12,8,3,-2,-5,68,54,37,30.01,29.87,14,3,19,0.00
2013-1-27,23,15,8,7,2,-3,68,57,48,30.29,29.99,10,2,17,0.00
2013-1-28,26,19,10,22,5,-2,90,57,32,30.32,30.01,4,1,12,0.00
2013-1-29,34,26,17,26,21,14,91,79,65,30.16,30.00,8,1,9,0.00
2013-1-30,52,43,31,52,42,26,99,96,82,30.11,29.40,12,3,20,0.35
2013-1-31,53,51,50,53,51,50,99,98,97,29.39,28.90,13,6,28,0.27
2013-2-1,24,18,13,7,4,3,64,55,44,29.93,29.66,12,1,13,0.00
2013-2-2,25,18,9,19,6,-1,85,60,42,30.13,29.93,7,1,13,0.00
2013-2-3,29,24,21,23,20,16,94,85,75,30.00,29.58,25,10,26,0.00
2013-2-4,27,21,14,16,9,-6,84,61,39,29.75,29.49,13,3,20,0.00
2013-2-5,22,16,9,8,-2,-6,66,46,31,29.97,29.75,11,2,14,0.00
2013-2-6,34,23,14,28,13,1,91,67,40,30.17,29.84,9,3,13,0.01
2013-2-7,16,10,5,-1,-7,-14,63,47,29,30.55,30.18,14,3,18,0.00
2013-2-8,21,13,6,17,8,-6,93,78,55,30.55,29.85,33,14,37,0.01
2013-2-9,19,16,14,17,12,-100,94,89,83,29.95,29.56,49,11,61,0.00
2013-2-10,32,20,12,19,12,7,87,71,55,30.28,29.96,19,1,25,0.00
2013-2-11,41,26,10,40,23,6,98,90,77,30.27,29.48,6,0,13,0.36
2013-2-12,42,37,33,37,33,30,99,86,70,29.65,29.41,7,1,14,0.02
2013-2-13,41,34,28,30,28,26,93,78,56,29.71,29.63,8,0,14,0.00
2013-2-14,38,32,24,30,23,19,91,71,48,29.94,29.64,14,3,20,0.00
2013-2-15,44,34,23,38,31,21,97,88,77,29.94,29.85,17,1,17,0.00
2013-2-16,35,32,26,35,30,25,98,94,85,29.86,29.68,13,4,22,0.00
2013-2-17,26,22,18,25,20,13,96,90,75,29.67,28.91,22,9,40,0.01
2013-2-18,28,21,16,13,6,4,78,53,42,29.84,29.19,14,3,26,0.00
2013-2-19,41,30,18,39,17,3,94,60,29,30.01,29.64,10,1,14,0.04
2013-2-20,43,37,29,42,31,19,97,80,61,29.62,29.30,14,1,22,0.48
2013-2-21,35,29,23,30,21,14,88,73,60,30.00,29.50,28,4,36,0.01
2013-2-22,36,31,25,27,24,20,84,73,56,30.30,30.01,19,8,28,0.00
2013-2-23,32,30,25,28,26,23,92,86,81,30.29,30.00,9,3,11,0.00
2013-2-24,33,30,27,29,28,25,97,93,80,30.00,29.72,17,8,19,0.00
2013-2-25,38,28,21,25,19,11,92,71,33,30.16,29.80,17,5,23,0.00
2013-2-26,42,30,20,31,24,17,93,78,59,30.29,30.17,5,0,8,0.00
2013-2-27,38,33,25,32,29,24,98,87,71,30.22,29.69,21,8,29,0.00
2013-2-28,39,36,33,38,36,32,98,97,95,29.67,29.44,27,12,31,0.16
2013-3-1,34,32,31,33,31,30,97,96,94,29.55,29.43,17,8,21,0.02
2013-3-2,38,34,32,35,32,29,97,93,87,29.53,29.48,9,2,16,0.14
2013-3-3,42,36,34,37,34,32,97,92,80,29.50,29.39,8,1,11,0.01
2013-3-4,36,34,32,35,32,30,97,94,89,29.56,29.34,16,4,19,0.18
2013-3-5,41,37,34,36,35,33,96,92,83,30.06,29.57,17,12,22,0.01
2013-3-6,38,35,33,34,30,27,92,83,74,30.21,30.07,21,14,29,0.00
2013-3-7,37,34,33,29,28,27,81,77,69,30.18,30.01,29,19,32,0.00
2013-3-8,43,36,32,29,28,26,83,72,54,30.13,29.98,28,21,35,0.00
2013-3-9,40,34,29,31,27,25,86,78,65,30.32,30.12,21,12,26,0.00
2013-3-10,38,31,28,30,26,24,88,82,64,30.37,30.25,10,2,12,0.00
2013-3-11,42,39,34,39,35,30,95,88,80,30.25,30.11,10,1,16,0.00
2013-3-12,50,45,40,46,43,39,97,92,81,30.12,29.78,8,2,17,0.36
2013-3-13,49,43,31,48,42,30,99,96,87,29.76,29.55,11,2,18,0.70
2013-3-14,43,34,25,31,27,20,95,78,49,29.61,29.52,8,1,14,0.00
2013-3-15,34,26,19,20,14,9,84,64,37,29.67,29.51,11,2,15,0.02
2013-3-16,34,28,22,23,16,11,86,62,39,29.81,29.53,8,1,16,0.00
2013-3-17,31,24,17,13,7,-2,81,51,30,30.20,29.81,18,2,21,0.00
2013-3-18,33,23,13,20,4,-3,75,45,28,30.35,30.21,7,1,15,0.00
2013-3-19,30,27,24,26,22,13,97,82,50,30.23,29.57,28,11,32,0.00
2013-3-20,33,26,19,31,24,17,97,90,82,29.62,29.47,24,5,31,0.06
2013-3-21,38,32,24,29,25,20,93,77,52,29.70,29.52,5,1,12,0.00
2013-3-22,38,29,24,28,23,20,92,77,57,29.52,29.49,14,4,17,0.00
2013-4-29,62,52,39,46,42,35,96,70,37,30.23,30.17,5,1,9,0.00
2013-4-30,65,49,35,47,38,32,98,71,33,30.30,30.20,6,1,11,0.00
2013-5-1,65,49,36,46,37,29,97,69,30,30.40,30.31,8,1,10,0.00
2013-5-2,61,49,39,47,42,38,97,77,50,30.48,30.36,9,3,13,0.00
2013-5-3,63,50,42,48,42,39,89,75,53,30.49,30.31,13,4,16,0.00
2013-5-4,58,47,37,43,38,35,92,73,52,30.35,30.26,11,3,12,0.00
2013-5-5,57,46,34,45,39,33,97,80,56,30.27,30.19,9,1,13,0.00
2013-5-6,57,47,36,48,42,35,98,85,63,30.22,30.12,7,1,13,0.00
2013-5-7,65,50,42,53,47,42,99,89,64,30.12,30.04,7,1,11,0.00
2013-5-8,68,56,47,61,53,46,99,91,74,30.20,30.11,5,1,11,0.00
2013-5-9,58,54,50,57,53,50,99,97,95,30.10,29.86,12,1,13,0.96
2013-5-10,63,54,49,60,53,48,100,96,84,29.91,29.83,6,1,10,0.97
2013-5-11,56,52,49,56,52,48,99,98,92,29.90,29.66,9,2,16,0.16
2013-5-12,57,52,48,57,52,47,100,99,97,29.65,29.46,4,0,11,0.46
2013-5-13,55,48,40,47,40,36,99,75,52,29.92,29.63,12,2,17,0.47
2013-5-14,54,48,42,41,36,33,93,64,46,29.93,29.84,10,2,14,0.00
2013-5-15,61,49,36,47,38,31,97,70,34,29.92,29.65,8,2,17,0.26
2013-5-16,68,55,48,56,50,44,98,84,59,29.69,29.49,9,2,14,0.27
2013-5-17,58,51,42,46,42,39,89,72,51,30.12,29.69,15,4,23,0.00
2013-5-18,59,47,38,47,41,37,96,80,57,30.29,30.13,8,2,15,0.00
2013-5-19,58,49,38,48,44,37,97,84,61,30.33,30.20,6,2,9,0.00
2013-5-20,56,52,49,55,51,48,98,96,94,30.20,29.88,10,2,15,0.71
2013-5-21,50,49,48,50,48,48,99,97,94,30.01,29.93,9,3,11,0.09
2013-5-22,51,50,48,50,49,47,98,97,95,29.99,29.88,18,6,19,0.25
2013-5-23,60,53,47,60,53,47,99,98,92,29.90,29.77,12,1,16,0.25
2013-5-24,60,56,51,60,56,50,100,99,93,29.78,29.61,18,3,21,1.26
2013-5-25,52,50,48,51,50,48,99,97,94,29.76,29.64,19,13,25,0.20
2013-5-26,50,48,43,49,47,42,99,95,88,29.84,29.56,10,2,13,0.26
2013-5-27,65,51,42,48,42,35,96,73,34,30.09,29.84,9,2,14,0.27
2013-5-28,69,54,39,53,43,36,98,72,33,30.17,30.10,7,1,11,0.00
2013-5-29,54,51,45,54,50,43,99,97,88,30.18,29.93,6,1,7,0.40
2013-5-30,77,60,51,68,58,51,100,91,69,29.95,29.88,5,1,8,0.02
2013-5-31,86,69,54,69,61,54,99,78,48,29.96,29.80,7,1,12,0.00
2013-6-1,82,68,59,73,62,57,97,82,61,29.85,29.75,5,1,13,0.00
2013-6-2,71,64,58,64,60,56,95,86,78,29.75,29.66,7,1,14,0.00
2013-6-3,68,60,56,64,59,55,98,94,81,29.77,29.64,6,1,9,0.02
2013-6-4,66,59,49,58,47,41,98,68,44,29.93,29.68,7,2,16,0.02
2013-6-5,68,58,46,51,45,38,87,64,38,30.08,29.94,9,2,13,0.00
2013-6-6,68,57,47,53,48,39,96,76,35,30.15,30.08,5,0,10,0.00
2013-6-7,61,56,53,54,50,43,96,83,52,30.11,29.93,10,4,13,0.20
2013-6-8,62,57,53,59,55,52,98,94,84,29.93,29.56,20,8,26,1.10
2013-6-9,63,57,51,59,54,50,97,90,80,30.05,29.89,5,1,10,1.10
2013-6-10,68,59,53,60,54,51,98,84,63,30.14,29.99,6,1,10,0.00
2013-6-11,55,54,52,55,53,52,97,96,93,29.99,29.46,19,9,26,0.30
2013-6-12,59,55,52,57,54,52,99,96,91,29.63,29.40,17,9,23,0.29
2013-6-13,68,58,52,57,53,51,97,85,63,29.72,29.63,11,2,18,0.44
2013-6-14,62,56,51,56,52,48,98,86,68,29.67,29.60,5,1,7,0.00
2013-6-15,75,62,46,53,47,42,98,64,33,29.79,29.64,10,2,21,0.01
2013-6-16,74,61,50,57,53,48,92,77,51,29.82,29.66,5,1,9,0.01
2013-6-17,77,64,56,63,58,55,97,85,57,29.77,29.64,8,1,13,0.19
2013-6-18,69,61,55,57,54,50,98,80,52,29.88,29.75,5,0,9,0.00
2013-6-19,72,62,53,55,50,42,94,68,35,30.04,29.84,15,4,17,0.00
2013-6-20,74,60,48,57,52,47,97,77,48,30.17,30.05,8,1,11,0.00
2013-6-21,76,63,54,63,56,53,96,81,49,30.15,30.08,4,1,9,0.00
2013-6-22,74,63,55,66,59,53,97,87,71,30.12,30.04,4,0,5,0.00
2013-6-23,70,62,56,65,60,55,97,93,82,30.07,29.88,4,1,9,0.23
2013-6-24,86,73,61,74,68,60,99,84,62,29.88,29.71,9,1,10,0.00
2013-6-25,86,74,65,73,67,63,97,81,58,29.76,29.62,6,1,10,0.43
2013-6-26,71,65,59,70,64,58,99,97,93,29.81,29.62,13,4,19,0.08
2013-6-27,61,57,55,58,56,54,99,95,91,29.84,29.79,11,5,15,0.01
2013-6-28,62,59,56,62,58,56,100,99,98,29.81,29.54,21,8,27,1.21
2013-6-29,64,61,58,64,61,58,100,100,100,29.65,29.52,4,1,11,0.04
2013-6-30,66,62,59,66,62,59,100,99,94,29.87,29.65,3,1,13,0.04
2013-7-1,74,65,60,71,64,60,100,97,88,30.04,29.86,4,1,6,0.03
2013-7-2,66,61,58,66,60,57,99,96,93,30.15,30.03,12,7,17,0.34
2013-7-3,72,63,58,66,61,57,98,92,81,30.12,30.03,6,1,8,0.34
2013-7-4,88,73,60,73,67,59,99,83,55,30.07,29.97,8,1,11,0.00
2013-7-5,89,77,64,75,70,64,99,81,58,30.00,29.91,8,1,11,0.00
2013-7-6,87,76,67,74,70,65,99,82,59,29.93,29.82,6,1,10,0.00
2013-7-7,88,78,67,71,67,63,87,69,46,29.86,29.79,7,1,13,0.00
2013-7-8,74,68,61,69,64,55,95,85,66,30.00,29.83,12,4,16,0.00
2013-7-9,68,64,61,65,62,58,96,93,82,30.06,30.00,9,3,11,0.00
2013-7-10,68,64,61,64,62,60,99,94,87,30.03,29.72,4,1,8,0.00
2013-7-11,73,67,63,71,66,63,100,97,85,29.88,29.68,5,0,10,0.03
2013-7-12,78,69,60,67,61,58,98,78,55,30.14,29.88,17,5,19,0.03
2013-7-13,79,68,57,66,61,56,98,80,55,30.24,30.14,5,1,8,0.00
2013-7-14,86,71,59,71,64,58,98,81,53,30.20,30.09,5,1,7,0.00
2013-7-15,91,75,62,73,67,61,98,78,40,30.10,29.95,6,1,8,0.00
2013-7-16,88,76,67,75,68,61,94,79,55,30.11,29.98,6,2,11,0.00
2013-7-17,76,69,64,68,64,60,96,83,73,30.12,29.85,5,1,10,0.11
2013-7-18,83,73,66,71,66,62,99,80,51,29.92,29.82,12,2,14,0.02
2013-7-19,83,72,65,75,68,65,98,90,73,29.88,29.55,5,1,12,0.00
2013-7-20,86,76,67,75,70,66,96,83,65,29.65,29.50,9,1,16,0.26
2013-7-21,73,66,57,65,58,55,93,76,62,29.96,29.69,7,1,10,0.26
2013-7-22,72,64,56,64,58,54,98,83,61,29.98,29.89,4,0,7,0.00
2013-7-23,67,63,60,67,63,59,100,98,93,29.88,29.46,12,3,13,0.94
2013-7-24,76,68,61,72,65,53,100,90,71,29.89,29.47,7,1,12,0.01
2013-7-25,72,62,57,61,56,51,96,81,61,30.06,29.89,17,4,19,0.02
2013-7-26,66,64,62,66,64,60,100,98,95,30.01,29.77,10,6,16,1.28
2013-7-27,79,68,60,69,64,59,99,87,66,29.98,29.76,8,1,13,0.01
2013-7-28,69,64,59,66,63,58,99,96,87,30.01,29.95,6,2,8,0.08
2013-7-29,71,65,61,67,64,61,99,95,86,30.00,29.92,7,1,8,0.08
2013-7-30,78,68,61,68,63,60,100,87,56,29.98,29.91,6,1,11,0.01
2013-7-31,79,67,57,64,59,56,95,77,50,30.02,29.95,9,2,12,0.01
2013-8-1,77,66,57,67,62,57,99,88,69,29.98,29.85,4,1,10,0.00
2013-8-2,67,64,60,66,64,59,99,98,97,29.84,29.70,4,1,7,0.27
2013-8-3,74,64,59,67,62,59,100,93,72,29.75,29.64,7,1,10,0.03
2013-8-4,77,66,57,65,60,56,99,83,60,29.71,29.63,7,1,15,0.01
2013-8-5,71,62,54,58,54,51,90,76,58,29.92,29.69,7,2,15,0.01
2013-8-6,75,63,50,61,54,48,91,75,54,30.08,29.92,7,1,11,0.00
2013-8-7,73,63,53,63,56,51,98,81,53,30.13,30.07,5,2,8,0.00
2013-8-8,64,62,57,63,61,57,98,97,94,30.09,29.98,5,1,8,0.17
2013-8-9,68,65,63,68,65,63,100,99,99,29.98,29.61,6,1,15,1.35
2013-8-10,79,70,56,71,61,52,100,77,44,29.88,29.62,9,2,15,1.35
2013-8-11,77,64,52,60,55,50,95,75,48,29.94,29.86,8,2,11,0.00
2013-8-12,78,65,56,66,59,54,98,84,59,29.92,29.82,5,1,11,0.00
2013-8-13,70,63,56,67,62,56,99,95,88,29.84,29.64,4,1,8,0.00
2013-8-14,72,64,59,67,61,51,99,91,67,29.74,29.53,4,1,11,0.00
2013-8-15,74,63,51,58,54,49,94,74,52,30.00,29.74,10,2,14,0.00
2013-8-16,75,63,54,61,57,53,98,84,53,30.11,29.99,4,1,10,0.00
2013-8-17,76,64,54,62,57,53,99,79,48,30.19,30.11,11,2,13,0.01
2013-8-18,75,64,53,63,58,53,98,84,55,30.19,29.96,5,1,9,0.01
2013-8-19,82,69,57,68,62,56,99,82,56,29.96,29.77,7,1,12,0.01
2013-8-20,83,70,62,69,64,60,97,83,61,29.99,29.84,6,1,8,0.01
2013-8-21,82,70,59,70,63,59,99,82,63,30.04,29.91,4,1,7,0.00
2013-8-22,82,70,60,70,65,60,98,85,64,29.91,29.67,5,1,10,0.00
2013-8-23,74,67,55,67,59,51,98,77,51,30.05,29.67,11,3,24,0.01
2013-8-24,73,61,49,58,52,47,95,76,42,30.21,30.06,10,3,13,0.00
2013-8-25,76,61,49,61,54,49,98,80,51,30.27,30.08,4,1,10,0.00
2013-8-26,71,63,57,65,61,54,98,92,81,30.08,29.78,7,1,9,0.02
2013-8-27,80,68,59,70,64,59,98,87,66,29.83,29.76,6,1,8,0.02
2013-8-28,77,66,60,68,64,60,99,92,73,29.93,29.81,9,2,10,0.14
2013-8-29,66,62,54,64,59,53,95,90,81,30.04,29.93,18,10,20,0.02
2013-8-30,72,60,51,64,57,50,98,89,71,29.93,29.70,5,1,10,0.00
2013-8-31,78,67,62,70,65,61,99,93,75,29.77,29.69,6,1,11,0.15
2013-9-1,78,68,64,72,67,64,100,95,80,29.88,29.69,5,0,6,0.03
2013-9-2,66,64,62,65,64,62,99,98,97,29.90,29.86,20,11,22,0.20
2013-9-14,67,61,55,61,57,53,94,89,78,29.92,29.78,1,0,4,0.00
2013-9-15,67,57,49,55,52,48,99,85,64,30.03,29.92,8,1,11,0.01
2013-9-16,63,55,45,57,52,36,99,88,71,30.16,29.88,13,2,24,0.01
2013-9-17,63,50,39,49,42,36,96,76,52,30.28,30.16,13,3,18,0.01
2013-9-18,69,55,43,53,48,42,99,81,46,30.20,30.00,4,1,9,0.00
2013-9-19,75,58,46,59,51,45,99,81,47,30.03,29.92,5,1,10,0.01
2013-9-20,75,59,48,61,53,48,99,83,53,30.02,29.94,8,1,10,0.01
2013-9-21,65,59,52,61,58,51,99,95,84,29.98,29.74,7,1,12,0.01
2013-9-22,65,62,55,64,60,51,99,96,86,29.74,29.53,15,2,17,0.58
2013-9-23,58,51,45,51,45,42,94,79,66,29.80,29.62,8,2,15,0.58
2013-9-24,52,50,47,47,44,42,91,82,74,29.79,29.71,5,1,12,0.04
2013-9-25,59,53,49,50,48,46,91,83,71,29.86,29.73,14,3,17,0.01
2013-9-26,60,55,49,53,50,46,93,83,72,30.03,29.87,18,5,20,0.01
2013-9-27,67,58,51,56,53,50,97,83,62,30.16,30.03,10,4,17,0.00
2013-9-28,70,55,48,58,51,47,99,87,58,30.26,30.16,4,0,7,0.01
2013-9-29,66,53,44,56,50,44,99,89,62,30.19,30.05,4,0,6,0.01
2013-9-30,63,53,44,54,50,44,99,91,62,30.07,29.89,6,1,9,0.01
2013-10-1,70,60,53,59,54,50,97,82,53,29.88,29.72,11,3,14,0.00
2013-10-2,77,62,50,63,55,50,99,81,53,29.77,29.62,6,1,12,0.01
2013-10-3,73,61,50,53,49,46,88,68,44,29.96,29.77,7,1,14,0.00
2013-10-4,69,56,47,54,49,46,98,81,47,30.01,29.93,10,1,11,0.00
2013-10-5,61,54,49,51,47,43,94,77,58,30.08,30.01,8,2,10,0.00
2013-10-6,58,51,46,49,42,37,92,72,50,30.23,30.08,16,4,17,0.14
2013-10-7,64,58,48,63,56,46,99,94,91,30.17,29.73,11,3,17,0.10
2013-10-8,64,55,41,64,48,39,99,79,53,30.31,29.73,10,2,19,0.17
2013-10-9,60,47,38,47,42,37,98,83,52,30.41,30.29,4,1,10,0.00
2013-10-10,61,48,39,52,45,39,99,88,58,30.29,30.12,5,0,7,0.01
2013-10-11,69,54,45,57,50,44,99,88,60,30.13,30.04,6,1,9,0.01
2013-10-12,58,52,43,53,48,42,97,87,68,30.36,30.13,13,5,18,0.00
2013-10-13,58,49,42,48,45,41,98,86,63,30.40,30.32,6,1,8,0.01
2013-10-14,60,50,40,52,46,39,99,87,67,30.32,30.18,5,0,10,0.01
2013-10-15,64,54,48,55,51,48,98,90,69,30.20,30.14,5,0,7,0.01
2013-10-16,58,54,50,55,53,50,99,96,87,30.16,29.81,8,2,12,0.02
2013-10-17,60,55,52,58,54,52,99,97,89,29.81,29.68,4,0,8,0.03
2013-10-18,64,55,48,61,53,46,100,93,70,29.72,29.49,8,1,17,0.18
2013-10-19,62,52,43,51,46,41,96,80,51,29.84,29.71,7,1,13,0.18
2013-10-20,62,55,43,56,45,33,94,72,40,29.84,29.59,7,1,15,0.00
2013-10-21,59,49,39,47,40,35,95,72,44,29.98,29.84,9,1,17,0.00
2013-10-22,60,54,47,56,52,44,97,91,82,29.93,29.61,9,1,18,0.02
2013-10-23,54,44,37,43,38,33,98,81,50,29.69,29.49,5,0,8,0.01
2013-10-24,49,44,36,41,33,28,92,68,45,29.69,29.49,10,2,17,0.01
2013-10-25,52,43,36,36,33,29,87,68,50,29.98,29.69,7,1,12,0.00
2013-10-26,50,41,34,42,34,28,95,77,52,30.03,29.80,8,1,19,0.03
2013-10-27,54,47,41,46,41,39,96,82,62,29.80,29.69,5,1,16,0.04
2013-11-11,44,40,37,41,33,31,88,77,61,29.89,29.76,7,1,9,0.00
2013-11-12,46,34,26,40,24,17,83,66,56,29.98,29.73,9,2,19,0.00
2013-11-13,35,28,24,20,16,14,71,61,45,30.10,29.98,11,2,19,0.00
2013-11-14,46,37,30,33,28,19,95,69,51,30.01,29.87,7,1,13,0.00
2013-11-15,51,38,29,43,33,29,98,85,46,30.11,29.99,4,0,9,0.01
2013-11-16,48,38,31,41,35,30,97,89,74,30.28,30.11,8,1,9,0.01
2013-11-17,51,44,30,49,42,30,99,94,84,30.31,29.93,6,1,11,0.03
2013-11-18,58,52,41,57,50,41,99,96,85,29.92,29.39,19,2,26,0.47
2013-11-19,42,37,33,42,27,19,98,70,49,30.04,29.46,11,2,23,0.48
2013-11-20,37,31,25,19,14,8,73,52,31,30.53,30.05,10,2,20,0.00
2013-11-21,47,33,24,32,22,16,92,66,30,30.54,30.27,3,0,8,0.00
2013-11-22,42,35,28,32,29,24,92,81,51,30.26,29.69,2,0,6,0.00
2013-11-23,40,35,28,37,25,15,96,69,42,29.68,29.54,11,2,24,0.03
2013-11-24,28,23,20,19,9,6,69,56,48,29.81,29.52,11,4,24,0.00
2013-11-25,28,22,17,17,5,0,70,50,31,30.23,29.82,11,2,22,0.00
2013-11-26,36,32,25,35,28,17,96,86,61,30.24,30.13,3,1,10,0.06
2013-11-27,56,50,36,55,49,35,99,97,96,30.12,29.04,13,4,26,2.37
2013-11-28,42,30,20,41,22,9,98,72,50,30.28,29.16,17,4,22,2.39
2013-11-29,25,20,17,13,11,8,78,67,51,30.64,30.28,18,2,18,0.00
2013-11-30,35,22,13,28,15,10,90,76,50,30.73,30.36,7,1,14,0.00
2013-12-1,40,37,33,39,35,28,97,94,77,30.36,30.03,11,2,13,0.15
2013-12-2,43,40,36,42,39,35,98,97,95,30.03,29.85,12,7,16,0.01
2013-12-3,40,38,34,39,37,32,99,96,91,29.84,29.73,11,5,20,0.01
2013-12-4,42,34,28,32,29,26,92,82,66,30.13,29.73,9,2,17,0.00
2013-12-5,49,38,26,48,36,25,98,94,89,30.22,29.84,6,1,11,0.04
2013-12-6,50,43,35,50,43,33,99,97,89,30.01,29.76,7,0,11,0.06
2013-12-7,36,32,24,32,21,12,94,66,49,30.29,29.98,8,2,14,0.06
2013-12-8,27,22,18,15,11,8,77,63,48,30.52,30.30,11,1,15,0.00
2013-12-9,35,28,23,35,23,11,98,83,61,30.49,29.74,17,8,18,0.04
2013-12-10,34,29,21,33,26,14,98,91,68,29.79,29.63,6,1,10,0.01
2013-12-11,29,23,15,18,15,11,86,73,56,30.02,29.80,10,2,20,0.01
2013-12-12,19,14,7,15,3,-4,87,64,44,30.15,29.91,6,1,15,0.00
2013-12-13,23,16,4,12,4,-6,76,59,39,30.30,29.79,11,3,22,0.00
2013-12-14,13,6,-1,5,-4,-10,73,62,46,30.55,30.30,17,4,18,0.00
2013-12-15,26,16,11,25,15,6,96,93,75,30.36,29.26,25,10,31,0.00
2013-12-16,22,14,3,19,9,-4,94,81,65,30.11,29.55,11,2,18,0.00
2013-12-17,18,8,-5,17,3,-9,94,78,70,30.25,29.98,15,5,19,0.00
2013-12-18,22,18,13,20,17,11,95,94,93,29.97,29.73,18,6,22,0.00
2013-12-19,31,26,14,30,25,12,96,96,93,30.01,29.84,5,0,8,0.02
2013-12-20,34,31,25,34,30,24,98,97,96,30.08,29.84,8,2,10,0.07
2013-12-21,34,31,28,34,31,28,99,98,96,29.90,29.75,15,4,16,0.12
2013-12-22,33,32,30,33,31,29,97,96,95,30.02,29.82,16,1,17,0.07
2013-12-23,34,32,29,34,31,29,98,98,97,30.04,29.89,3,0,9,0.15
2013-12-24,33,23,11,32,20,8,98,90,86,30.06,29.96,8,2,17,0.16
2013-12-25,18,12,8,14,8,5,92,87,82,30.49,30.06,12,2,21,0.00
2013-12-26,31,22,13,30,20,11,98,95,90,30.46,29.97,8,4,13,0.00
2013-12-27,29,22,13,27,20,12,96,93,90,30.11,29.99,4,1,8,0.04
2013-12-28,35,28,16,33,26,14,97,95,91,30.09,29.84,4,0,7,0.01
2013-12-29,35,32,28,34,30,-100,99,97,97,29.96,29.42,12,-8,15,0.39
2013-12-30,29,19,4,29,17,0,98,92,80,30.10,29.39,13,0,20,0.39
2013-12-31,10,4,-1,5,1,-5,90,84,74,30.11,29.97,10,2,13,0.00
2014-1-1,19,9,0,12,5,-3,91,83,68,30.36,30.03,7,1,18,0.00
2014-1-2,3,-1,-4,-1,-4,-7,89,87,78,30.42,29.95,28,15,31,0.00